Morgantown, WV

11:13 PM EDT on October 20, 2017 (GMT -0400)
Morgantown Municipal-Hart

Weather History for KMGW - September, 2012

Change the Weather History Date:

Thursday, September 13, 2012

  Actual Average Record
Temperature  
Mean Temperature 69 °F 66 °F  
Max Temperature 84 °F 77 °F 96 °F (1897)
Min Temperature 54 °F 56 °F 39 °F (1985)
Degree Days  
Heating Degree Days 0 2  
Month to date heating degree days 9 16  
Since 1 July heating degree days 9 27  
Cooling Degree Days 4 3  
Month to date cooling degree days 98 57  
Year to date cooling degree days 1098 766  
Growing Degree Days 18 (Base 50)    
Moisture  
Dew Point 56 °F    
Average Humidity 66    
Maximum Humidity 93    
Minimum Humidity 39    
Precipitation  
Precipitation 0.00 in 0.10 in 1.99 in (1974)
Month to date precipitation 1.10 1.37  
Year to date precipitation 21.78 30.84  
Sea Level Pressure  
Sea Level Pressure 30.30 in    
Wind  
Wind Speed 2 mph (NW)    
Max Wind Speed 7 mph    
Max Gust Speed 9 mph    
Visibility 10 miles    
Events      
T = Trace of Precipitation, MM = Missing Value Source: NWS Daily Summary

Daily Weather History Graph

Daily Weather History Graph

Search for Another Location

Airport or City:

Trip Planner

Search our weather history database for the weather conditions in past years. The results will help you decide how hot, cold, wet, or windy it might be!

Date:

Astronomy

Sep. 13, 2012 Rise Set
Actual Time 6:59 AM EDT 7:30 PM EDT
Civil Twilight 6:32 AM EDT 7:57 PM EDT
Nautical Twilight 6:00 AM EDT 8:29 PM EDT
Astronomical Twilight 5:27 AM EDT 9:02 PM EDT
Moon 4:17 AM EDT (9/13) 5:52 PM EDT (9/13)
Length of Visible Light 13h 25m
Length of Day
12h 31m
Waning Crescent, 7% of the Moon is Illuminated
Sep 13
Waning Crescent
Sep 15
New
Sep 22
First Quarter
Sep 29
Full
Oct 8
Last Quarter

Hourly Weather History & Observations

Time (EDT) Temp. Heat Index Dew Point Humidity Pressure Visibility Wind Dir Wind Speed Gust Speed Precip Events Conditions
12:53 AM 63.0 °F - 55.9 °F 78% 30.31 in 10.0 mi Calm Calm - N/A   Clear
1:53 AM 61.0 °F - 55.0 °F 81% 30.31 in 10.0 mi Calm Calm - N/A   Clear
2:53 AM 60.1 °F - 55.0 °F 83% 30.30 in 10.0 mi Calm Calm - N/A   Clear
3:53 AM 57.0 °F - 55.0 °F 93% 30.30 in 10.0 mi South 3.5 mph - N/A   Clear
4:53 AM 57.9 °F - 55.9 °F 93% 30.31 in 10.0 mi Calm Calm - N/A   Clear
5:53 AM 57.0 °F - 54.0 °F 89% 30.32 in 10.0 mi Calm Calm - N/A   Clear
6:53 AM 55.0 °F - 54.0 °F 96% 30.34 in 7.0 mi Calm Calm - N/A   Clear
7:53 AM 57.9 °F - 55.9 °F 93% 30.37 in 9.0 mi Calm Calm - N/A   Clear
8:53 AM 62.1 °F - 57.0 °F 84% 30.37 in 10.0 mi Calm Calm - N/A   Clear
9:53 AM 68.0 °F - 57.0 °F 68% 30.38 in 10.0 mi Variable 3.5 mph - N/A   Clear
10:53 AM 72.0 °F - 57.0 °F 59% 30.37 in 10.0 mi South 4.6 mph - N/A   Clear
11:53 AM 75.0 °F - 57.0 °F 53% 30.36 in 10.0 mi Variable 3.5 mph - N/A   Clear
12:53 PM 80.1 °F 80.6 °F 57.9 °F 47% 30.34 in 10.0 mi WNW 3.5 mph - N/A   Clear
1:53 PM 79.0 °F - 55.0 °F 44% 30.32 in 10.0 mi Calm Calm - N/A   Clear
2:53 PM 82.0 °F 81.4 °F 55.0 °F 39% 30.29 in 10.0 mi Variable 3.5 mph - N/A   Clear
3:53 PM 81.0 °F 80.4 °F 53.1 °F 38% 30.27 in 10.0 mi Variable 3.5 mph - N/A   Partly Cloudy
4:21 PM 82.4 °F 81.4 °F 53.6 °F 37% 30.28 in 10.0 mi WNW 3.5 mph - N/A   Partly Cloudy
4:53 PM 82.9 °F 82.0 °F 55.0 °F 38% 30.25 in 10.0 mi North 3.5 mph - N/A   Clear
5:53 PM 80.1 °F 80.2 °F 55.9 °F 43% 30.24 in 10.0 mi North 5.8 mph - N/A   Clear
6:53 PM 75.9 °F - 57.0 °F 52% 30.24 in 10.0 mi NNE 3.5 mph - N/A   Clear
7:53 PM 71.6 °F - 59.0 °F 64% 30.26 in 10.0 mi Calm Calm - N/A   Clear
8:53 PM 70.0 °F - 57.9 °F 65% 30.25 in 10.0 mi Calm Calm - N/A   Clear
9:53 PM 69.1 °F - 57.0 °F 65% 30.25 in 10.0 mi Calm Calm - N/A   Clear
10:53 PM 70.0 °F - 55.9 °F 61% 30.25 in 10.0 mi Calm Calm - N/A   Clear
11:53 PM 68.0 °F - 55.0 °F 63% 30.25 in 10.0 mi Calm Calm - N/A   Clear